EO-88
1 42017U 17008BX 17158.90742674 .00001472 00000-0 65772-4 0 9996
2 42017 097.4960 220.3818 0005033 247.7182 112.3521 15.22936918017073
SOMP2
1 42700U 98067LH 17158.88648691 .00009430 00000-0 14246-3 0 9991
2 42700 051.6405 084.4843 0005718 293.6867 066.3524 15.55462122003494
HAVELSAT
1 42701U 98067LJ 17158.88676222 .00008823 00000-0 13396-3 0 9993
2 42701 051.6408 084.4863 0005702 294.0943 065.9452 15.55417222003488
Columbia
1 42702U 98067LK 17158.88410154 .00019214 00000-0 27842-3 0 9991
2 42702 051.6403 084.4684 0005602 287.2660 072.7718 15.55869851003417
PHOENIX
1 42706U 98067LP 17158.88716306 .00010132 00000-0 15266-3 0 9990
2 42706 051.6407 084.4901 0000616 268.8838 091.2082 15.55440974003409
X-CubeSat
1 42707U 98067LQ 17158.88740278 .00009984 00000-0 15060-3 0 9991
2 42707 051.6405 084.4911 0000731 263.6903 096.4005 15.55429487003399
qbee
1 42708U 98067LR 17158.88776308 .00009575 00000-0 14491-3 0 9998
2 42708 051.6406 084.4935 0000820 263.5714 096.5184 15.55395360003352
ZA-AeroSat
1 42713U 98067LU 17158.89048807 .00008270 00000-0 12704-3 0 9997
2 42713 051.6406 084.5115 0001889 203.2076 156.8830 15.55198542003066
LINK
1 42714U 98067LV 17158.89078497 .00008987 00000-0 13737-3 0 9998
2 42714 051.6405 084.5134 0002102 211.0779 149.0088 15.55210295003174
UPSat
1 42716U 98067LX 17158.95319376 .00010900 00000-0 16395-3 0 9992
2 42716 051.6405 084.1805 0004014 299.4021 060.6569 15.55398712003208
SpaceCube
1 42717U 98067LY 17158.88977019 .00009304 00000-0 14154-3 0 9996
2 42717 051.6406 084.5067 0004012 297.9695 062.0890 15.55292929002432
Hoopoe
1 42718U 98067LZ 17158.88958099 .00010380 00000-0 15683-3 0 9998
2 42718 051.6406 084.5055 0004010 296.9047 063.1534 15.55334999002439
UNSW-EC0
1 42721U 98067MA 17158.83161727 .00013452 00000-0 20250-3 0 9990
2 42721 051.6405 084.8672 0007119 271.8868 088.1308 15.55126663002125
NJUST-1
1 42722U 98067MB 17158.63964781 .00008405 00000-0 13013-3 0 9991
2 42722 051.6406 085.8352 0007023 272.4510 087.5677 15.54946491002094
Challenger
1 42723U 98067MC 17158.83230951 .00010480 00000-0 16014-3 0 9999
2 42723 051.6406 084.8717 0006919 272.4409 087.5790 15.55000544002108
DUTHsat
1 42724U 98067MD 17158.76827118 .00013194 00000-0 19957-3 0 9993
2 42724 051.6406 085.1942 0006053 274.7863 085.2437 15.55021851002018
LilacSat-1
1 42725U 98067ME 17158.76882626 .00008870 00000-0 13721-3 0 9997
2 42725 051.6408 085.1980 0006024 276.2416 083.7888 15.54892302002011
nSIGHT1
1 42726U 98067MF 17158.76926877 .00006068 00000-0 96468-4 0 9992
2 42726 051.6408 085.2010 0006001 277.7446 082.2864 15.54804294002023
QBITO
1 42728U 98067MH 17158.76823844 .00009821 00000-0 15066-3 0 9998
2 42728 051.6408 085.1943 0003091 287.1186 072.9467 15.54987210001823
Aalto-2
1 42729U 98067MJ 17158.76820493 .00009872 00000-0 15137-3 0 9991
2 42729 051.6407 085.1942 0003072 287.2192 072.8463 15.54993680001833
SUSat
1 42730U 98067MK 17158.76850572 .00010428 00000-0 15971-3 0 9999
2 42730 051.6407 085.1964 0003124 285.5500 074.5146 15.54955346001824
i-INSPIRE II
1 42731U 98067ML 17158.76817449 .00009800 00000-0 15006-3 0 9997
2 42731 051.6400 085.1928 0007154 217.3649 142.6845 15.55029653001874
PolyITAN-2-SAU
1 42732U 98067MM 17158.76812296 .00009906 00000-0 15153-3 0 9993
2 42732 051.6399 085.1928 0007078 217.5173 142.5325 15.55041366001878
SNUSAT-1
1 42733U 98067MN 17158.76853139 .00009413 00000-0 14469-3 0 9997
2 42733 051.6401 085.1952 0007030 218.5590 141.4899 15.54978419001873
ExAlta-1
1 42734U 98067MP 17158.76821478 .00009425 00000-0 14450-3 0 9992
2 42734 051.6402 085.1933 0008606 244.8204 115.1895 15.55037280001820
Aoxiang-1
1 42735U 98067MQ 17158.83276886 .00008363 00000-0 12929-3 0 9997
2 42735 051.6407 084.8749 0007714 269.2519 090.7588 15.54990625003252
BeEagleSat
1 42736U 98067MR 17158.76873187 .00008501 00000-0 13143-3 0 9990
2 42736 051.6406 085.1972 0007569 268.5070 091.5054 15.54965027001934
Atlantis
1 42737U 98067MS 17158.83212376 .00017580 00000-0 26154-3 0 9999
2 42737 051.6403 084.8705 0007493 265.5952 094.4183 15.55206285001833
/EX
1
0
SB KEPS @ AMSAT $ORB17152.N
2Line Orbital Elements 17152.AMSAT
HR AMSAT ORBITAL ELEMENTS FOR AMATEUR SATELLITES IN NASA FORMAT
FROM WA5QGD FORT WORTH,TX June 1, 2017
BID: ORB17152.N
DECODE 2-LINE ELSETS WITH THE FOLLOWING KEY:
1 AAAAAU 00 0 0 BBBBB.BBBBBBBB .CCCCCCCC 00000-0 00000-0 0 DDDZ
2 AAAAA EEE.EEEE FFF.FFFF GGGGGGG HHH.HHHH III.IIII JJ.JJJJJJJJKKKKKZ
KEY: A-CATALOGNUM B-EPOCHTIME C-DECAY D-ELSETNUM E-INCLINATION F-RAAN
G-ECCENTRICITY H-ARGPERIGEE I-MNANOM J-MNMOTION K-ORBITNUM Z-CHECKSUM
TO ALL RADIO AMATEURS BT
AO-07
1 07530U 74089B 17151.87586213 -.00000031 00000-0 84885-4 0 9990
2 07530 101.6289 120.8825 0012120 356.2962 057.7226 12.53627058946589
UO-11
1 14781U 84021B 17151.90570172 .00000123 00000-0 21391-4 0 9998
2 14781 097.6986 198.2197 0007079 249.4153 110.6302 14.82896846766936
LO-19
1 20442U 90005G 17151.87360311 .00000005 00000-0 17893-4 0 9997
2 20442 098.5750 088.5540 0011429 190.4949 169.5998 14.32860503429229
HUBBLE
1 20580U 90037B 17151.93384536 .00000528 00000-0 21593-4 0 9999
2 20580 028.4692 114.9167 0002703 003.8710 031.2331 15.08772918287747
MET-2/21
1 22782U 93055A 17151.82684642 -.00000005 00000-0 -18026-4 0 9996
2 22782 082.5504 036.5724 0023533 115.3611 315.1931 13.83801578199161
AO-27
1 22825U 93061C 17151.88969441 .00000006 00000-0 19958-4 0 9994
2 22825 098.8107 117.2717 0008913 026.2599 333.9032 14.29996994234806
IO-26
1 22826U 93061D 17151.85453462 .00000022 00000-0 26091-4 0 9997
2 22826 098.8050 117.3202 0009261 016.8362 343.3125 14.30325766234997
FO-29
1 24278U 96046B 17151.89648522 -.00000022 00000-0 13666-4 0 9998
2 24278 098.5664 037.3197 0350836 019.7922 341.6450 13.53076462026679
NOAA-15
1 25338U 98030A 17151.93418015 .00000059 00000-0 43701-4 0 9990
2 25338 098.7820 162.8125 0009432 251.8834 108.1319 14.25795457990427
GO-32
1 25397U 98043D 17151.88919274 -.00000003 00000-0 17713-4 0 9990
2 25397 098.6090 094.5704 0002318 066.8288 293.3135 14.23622618981257
ISS
1 25544U 98067A 17151.84546410 .00003504 00000-0 60488-4 0 9999
2 25544 051.6412 119.7758 0005022 216.0442 228.6345 15.53968870059216
NO-44
1 26931U 01043C 17151.95657093 -.00000016 00000-0 25733-4 0 9990
2 26931 067.0497 133.0731 0008024 267.9409 092.0773 14.30461698817955
SO-50
1 27607U 02058C 17151.53135862 .00000009 00000-0 21758-4 0 9991
2 27607 064.5540 176.4592 0030041 105.2867 255.1559 14.75326560776527
CO-55
1 27844U 03031E 17151.89213803 .00000061 00000-0 47424-4 0 9993
2 27844 098.6894 161.1362 0010528 040.5550 319.6410 14.22038853722007
CO-57
1 27848U 03031J 17151.95787503 .00000048 00000-0 41904-4 0 9999
2 27848 098.6987 161.4528 0010570 049.0379 311.1711 14.21653286721867
RS-22
1 27939U 03042A 17151.94726845 .00000126 00000-0 31090-4 0 9995
2 27939 097.9370 297.2135 0011569 278.5990 192.7395 14.66565633730795
NOAA-18
1 28654U 05018A 17151.90218069 .00000006 00000-0 28615-4 0 9991
2 28654 099.1831 173.7181 0015394 115.9269 244.3490 14.12338335619860
CO-58
1 28895U 05043F 17151.42154644 .00000171 00000-0 41785-4 0 9997
2 28895 097.8631 314.4884 0016558 191.8627 168.2188 14.63394293617809
Falconsat-3
1 30776U 07006E 17151.48335345 .00002297 00000-0 73807-4 0 9995
2 30776 035.4354 172.5822 0003077 189.3602 170.7066 15.32182284565696
